Location: Normandy Village
(37.8755°N, 122.2655°W)
Time: 02:40:16
(UTC+00:00)

Meteor 1-19 Rocket - Pass Details

Date: 22 September 2019
Orbit: 818 x 916 km, 81.2° (Epoch: 15 October)

Event Time Altitude Azimuth Distance (km) Brightness Sun altitude
Rises 13:04:39 0° 184° (S) 3,398 7.2 -11.1°
Reaches altitude 10° 13:07:01 10° 184° (S) 2,481 6.5 -10.6°
Maximum altitude 13:12:40 82° 98° (E) 887 4.4 -9.5°
Drops below altitude 10° 13:18:30 10° 11° (N) 2,564 7.0 -8.4°
Sets 13:21:00 0° 11° (N) 3,521 7.7 -7.9°
